This demonstration page uses our WeatherBlox Daily Observations layout. Learn more.

Left ArrowRight Arrow

Hourly Observations for May 29, 2018

Temp ( °F °C ) Dew Point ( °F °C ) Humidity (%) Winds ( mph kmh ) Pressure ( in mb ) Visibility ( mi km ) Precip ( " mm )
12:53 am 00:53 Clear 60 15.6 53 11.7 78 78 NW 5 7 29.73 1007 10 16 0.00 0.00
1:53 am 01:53 Clear 60 15.6 53 11.7 78 78 ESE 3 6 29.71 1006 10 16 0.00 0.00
2:53 am 02:53 Clear 53 11.7 50 10 89 89 SW 5 7 29.72 1006 10 16 0.00 0.00
3:53 am 03:53 Clear 53 11.7 50 10 89 89 W 3 6 29.72 1007 10 16 0.00 0.00
4:53 am 04:53 Mostly Clear 54 12.2 51 10.6 90 90 SSW 5 7 29.73 1007 10 16 0.00 0.00
5:53 am 05:53 Sunny 59 15 53 11.7 81 81 SW 20 31 29.72 1007 10 16 0.00 0.00
6:53 am 06:53 Sunny 60 15.6 52 11.1 75 75 WSW 12 19 29.73 1007 10 16 0.00 0.00
7:53 am 07:53 Sunny 63 17.2 47 8.3 56 56 NW 15 24 29.76 1008 10 16 0.00 0.00
8:53 am 08:53 Sunny 65 18.3 46 7.8 51 51 NW 16 26 29.78 1009 10 16 0.00 0.00
9:53 am 09:53 Sunny 67 19.4 46 7.8 47 47 WNW 15 24 29.79 1009 10 16 0.00 0.00
10:53 am 10:53 Sunny 69 20.6 47 8.3 45 45 WNW 15 24 29.80 1009 10 16 0.00 0.00
11:53 am 11:53 Sunny 71 21.7 48 8.9 44 44 WNW 17 28 29.81 1009 10 16 0.00 0.00
12:53 pm 12:53 Sunny 73 22.8 47 8.3 40 40 WNW 17 28 29.80 1009 10 16 0.00 0.00
1:53 pm 13:53 Sunny 74 23.3 47 8.3 38 38 WNW 16 26 29.80 1009 10 16 0.00 0.00
2:53 pm 14:53 Sunny 75 23.9 46 7.8 36 36 WNW 14 22 29.80 1009 10 16 0.00 0.00
3:53 pm 15:53 Sunny 77 25 47 8.3 35 35 WNW 15 24 29.78 1009 10 16 0.00 0.00
4:53 pm 16:53 Sunny 78 25.6 47 8.3 33 33 WNW 17 28 29.77 1008 10 16 0.00 0.00
5:53 pm 17:53 Sunny 78 25.6 45 7.2 31 31 NNW 13 20 29.74 1007 10 16 0.00 0.00
6:53 pm 18:53 Sunny 77 25 44 6.7 31 31 NNW 7 11 29.73 1007 10 16 0.00 0.00
7:53 pm 19:53 Sunny 75 23.9 46 7.8 36 36 W 6 9 29.72 1006 10 16 0.00 0.00
8:53 pm 20:53 Sunny 67 19.4 48 8.9 51 51 WNW 7 11 29.73 1007 10 16 0.00 0.00
9:53 pm 21:53 Clear 65 18.3 46 7.8 51 51 N 5 7 29.74 1007 10 16 0.00 0.00
10:53 pm 22:53 Clear 56 13.3 46 7.8 70 70 S 6 9 29.75 1007 10 16 0.00 0.00
11:53 pm 23:53 Clear 55 12.8 46 7.8 72 72 Calm 29.74 1007 10 16 0.00 0.00

Powered by AerisWeather